Weather History for Oklahoma City, OK

Change the Weather History Date:

Friday, December 14, 2012

  Actual Average Record
Temperature  
Mean Temperature 50 °F 40 °F  
Max Temperature 56 °F 50 °F 74 °F (1933)
Min Temperature 44 °F 31 °F -2 °F (1901)
Degree Days  
Heating Degree Days 15 25  
Month to date heating degree days 229 321  
Since 1 July heating degree days 771 920  
Growing Degree Days 2 (Base 50)    
Moisture  
Dew Point 38 °F    
Average Humidity 66    
Maximum Humidity 93    
Minimum Humidity 38    
Precipitation  
Precipitation 0.24 in 0.06 in 1.37 in (1902)
Month to date precipitation 0.24 0.90  
Year to date precipitation 29.04 35.54  
Snow  
Snow 0.00 in 0.10 in 8.30 in (1987)
Month to date snowfall T 0.8  
Since 1 July snowfall T 1.2  
Snow Depth -    
Sea Level Pressure  
Sea Level Pressure 29.89 in    
Wind  
Wind Speed 18 mph (South)    
Max Wind Speed 31 mph    
Max Gust Speed 41 mph    
Visibility 8 miles    
Events Rain    
T = Trace of Precipitation, MM = Missing Value Source: NWS Daily Summary

Daily Weather History Graph

Daily Weather History Graph

Search for Another Location

Airport:

Trip Planner

Search our weather history database for the weather conditions in past years. The results will help you decide how hot, cold, wet, or windy it might be!

Date:

Astronomy

Dec. 14, 2012 Rise Set
Actual Time 7:31 AM CST 5:19 PM CST
Civil Twilight 7:03 AM CST 5:47 PM CST
Nautical Twilight 6:31 AM CST 6:19 PM CST
Astronomical Twilight 6:00 AM CST 6:50 PM CST
Moon 8:39 AM CST (12/14) 7:10 PM CST (12/14)
Length of Visible Light 10h 43m
Length of Day
9h 47m
Waxing Crescent, 3% of the Moon is Illuminated
Dec 14
Waxing Crescent
Dec 19
First Quarter
Dec 28
Full
Jan 4
Last Quarter
Jan 11
New

Hourly Weather History & Observations

Time (CST) Temp. Windchill Dew Point Humidity Pressure Visibility Wind Dir Wind Speed Gust Speed Precip Events Conditions
12:52 AM 46.0 °F 40.2 °F 24.1 °F 42% 30.09 in 10.0 mi South 12.7 mph - N/A   Mostly Cloudy
1:52 AM 45.0 °F 39.3 °F 24.1 °F 44% 30.08 in 10.0 mi SSE 11.5 mph - N/A   Scattered Clouds
2:52 AM 45.0 °F 37.9 °F 24.1 °F 44% 30.06 in 10.0 mi SSE 16.1 mph - N/A   Scattered Clouds
3:52 AM 46.9 °F - 25.0 °F 42% 30.04 in 10.0 mi South 13.8 mph - N/A   Mostly Cloudy
4:52 AM 51.1 °F - 26.1 °F 38% 30.04 in 10.0 mi South 17.3 mph - N/A   Overcast
5:52 AM 51.1 °F - 27.0 °F 39% 30.03 in 10.0 mi South 18.4 mph - N/A   Mostly Cloudy
6:52 AM 51.1 °F - 28.0 °F 41% 30.03 in 10.0 mi South 13.8 mph - N/A   Mostly Cloudy
7:52 AM 52.0 °F - 28.9 °F 41% 30.01 in 10.0 mi South 17.3 mph - N/A   Overcast
8:36 AM 51.8 °F - 30.2 °F 44% 30.03 in 10.0 mi South 16.1 mph 25.3 mph N/A   Overcast
8:52 AM 52.0 °F - 30.0 °F 43% 30.02 in 10.0 mi SSE 13.8 mph 21.9 mph N/A   Overcast
9:52 AM 53.1 °F - 32.0 °F 45% 30.02 in 10.0 mi South 17.3 mph 24.2 mph N/A   Overcast
10:52 AM 54.0 °F - 36.0 °F 51% 30.01 in 10.0 mi South 18.4 mph 24.2 mph N/A   Overcast
11:52 AM 54.0 °F - 39.9 °F 59% 29.97 in 10.0 mi SSE 18.4 mph 24.2 mph N/A   Overcast
12:52 PM 55.0 °F - 41.0 °F 59% 29.91 in 10.0 mi South 16.1 mph 24.2 mph N/A   Overcast
1:52 PM 54.0 °F - 39.0 °F 57% 29.87 in 10.0 mi SSE 23.0 mph 28.8 mph N/A   Overcast
2:52 PM 53.1 °F - 39.0 °F 59% 29.83 in 10.0 mi SSE 23.0 mph 29.9 mph N/A   Overcast
3:52 PM 52.0 °F - 39.9 °F 63% 29.80 in 10.0 mi SSE 27.6 mph 33.4 mph N/A   Overcast
4:28 PM 51.8 °F - 44.6 °F 76% 29.79 in 10.0 mi SSE 26.5 mph 34.5 mph N/A   Overcast
4:52 PM 51.1 °F - 44.1 °F 77% 29.78 in 10.0 mi SSE 23.0 mph 32.2 mph N/A   Overcast
5:52 PM 50.0 °F - 46.0 °F 86% 29.76 in 5.0 mi SSE 21.9 mph 27.6 mph N/A   Overcast
6:19 PM 48.2 °F - 46.4 °F 93% 29.76 in 2.5 mi SSE 23.0 mph 32.2 mph 0.00 in Rain Light Rain
6:27 PM 48.2 °F - 46.4 °F 93% 29.75 in 3.0 mi SSE 24.2 mph 31.1 mph 0.00 in Rain Light Rain
6:52 PM 48.0 °F - 46.0 °F 93% 29.75 in 3.0 mi SSE 24.2 mph 33.4 mph 0.00 in Rain Light Rain
7:52 PM 48.0 °F - 46.0 °F 93% 29.72 in 4.0 mi SSE 27.6 mph 36.8 mph 0.00 in Rain Light Rain
8:36 PM 50.0 °F - 46.4 °F 87% 29.82 in 1.8 mi WSW 20.7 mph 34.5 mph 0.04 in Rain Heavy Rain
8:45 PM 50.0 °F - 48.2 °F 94% 29.80 in 2.0 mi SW 13.8 mph 29.9 mph 0.19 in Rain Heavy Rain
8:52 PM 50.0 °F - 48.9 °F 96% 29.80 in 2.0 mi SSW 11.5 mph - 0.19 in Rain Light Rain
8:59 PM 50.0 °F - 48.2 °F 94% 29.80 in 4.0 mi South 10.4 mph - 0.01 in Rain Light Rain
9:52 PM 50.0 °F - 48.0 °F 93% 29.72 in 4.0 mi SSE 13.8 mph - 0.05 in Rain Light Rain
10:52 PM 51.1 °F - 48.9 °F 92% 29.73 in 10.0 mi South 12.7 mph - 0.00 in   Mostly Cloudy
11:52 PM 51.1 °F - 48.9 °F 92% 29.71 in 10.0 mi South 12.7 mph - N/A   Mostly Cloudy